TimeEST,TemperatureF,Dew PointF,Humidity,Sea Level PressureIn,VisibilityMPH,Wind Direction,Wind SpeedMPH,Gust SpeedMPH,PrecipitationIn,Events,Conditions,WindDirDegrees,DateUTC
12:53 AM,35.1,28.0,76,29.96,10.0,ENE,5.8,-,N/A,,Overcast,70,2013-03-05 05:53:00
2:53 AM,36.0,27.0,70,29.93,10.0,East,8.1,-,N/A,,Overcast,80,2013-03-05 07:53:00
3:53 AM,35.1,28.0,76,29.90,10.0,East,8.1,-,N/A,,Overcast,80,2013-03-05 08:53:00
4:53 AM,35.1,28.0,76,29.88,10.0,ESE,9.2,-,N/A,,Overcast,110,2013-03-05 09:53:00
5:53 AM,35.1,28.0,76,29.87,10.0,East,8.1,-,N/A,,Overcast,90,2013-03-05 10:53:00
6:53 AM,35.1,28.9,78,29.87,10.0,East,6.9,-,N/A,,Overcast,100,2013-03-05 11:53:00
8:53 AM,36.0,30.0,79,29.85,10.0,ESE,9.2,-,0.00,,Overcast,110,2013-03-05 13:53:00
9:53 AM,36.0,30.9,82,29.82,10.0,East,9.2,-,0.01,,Overcast,100,2013-03-05 14:53:00
10:44 AM,35.6,30.2,81,29.78,10.0,East,10.4,-,N/A,,Overcast,100,2013-03-05 15:44:00
10:53 AM,36.0,30.9,82,29.79,10.0,East,11.5,-,N/A,,Overcast,90,2013-03-05 15:53:00
11:32 AM,35.6,33.8,93,29.75,3.0,East,12.7,18.4,N/A,,Overcast,100,2013-03-05 16:32:00
11:40 AM,35.6,33.8,93,29.75,2.0,East,12.7,-,0.00,,Overcast,100,2013-03-05 16:40:00
11:53 AM,35.1,34.0,96,29.78,2.5,ESE,6.9,-,0.00,,Overcast,110,2013-03-05 16:53:00
12:09 PM,35.6,33.8,93,29.75,1.8,ESE,9.2,-,0.00,,Overcast,110,2013-03-05 17:09:00
12:32 PM,35.6,35.6,100,29.73,1.5,East,8.1,-,0.00,,Overcast,90,2013-03-05 17:32:00
12:53 PM,35.1,34.0,96,29.74,2.5,East,6.9,-,0.00,,Overcast,90,2013-03-05 17:53:00
1:22 PM,35.6,35.6,100,29.69,1.5,East,5.8,-,N/A,,Overcast,90,2013-03-05 18:22:00
1:38 PM,35.6,33.8,93,29.68,2.0,East,8.1,-,0.01,,Overcast,100,2013-03-05 18:38:00
1:46 PM,35.6,33.8,93,29.69,1.8,East,4.6,-,0.01,,Overcast,100,2013-03-05 18:46:00
1:53 PM,35.1,35.1,100,29.70,1.5,East,8.1,-,0.01,,Overcast,90,2013-03-05 18:53:00
2:45 PM,35.6,35.6,100,29.65,1.5,ENE,4.6,-,0.03,,Overcast,60,2013-03-05 19:45:00
2:53 PM,35.1,35.1,100,29.67,1.5,ENE,5.8,-,0.03,Rain,Light Rain,70,2013-03-05 19:53:00
3:53 PM,33.1,33.1,100,29.67,1.5,Calm,Calm,-,0.06,Snow,Light Snow,0,2013-03-05 20:53:00
4:24 PM,32.0,32.0,100,29.66,0.8,WNW,4.6,-,0.04,Snow,Light Snow,300,2013-03-05 21:24:00
4:27 PM,32.0,32.0,100,29.65,0.5,WNW,4.6,-,0.05,Fog-Snow,Snow,300,2013-03-05 21:27:00
4:53 PM,32.0,32.0,100,29.68,0.2,WNW,4.6,-,0.08,Fog-Snow,Snow,290,2013-03-05 21:53:00
5:00 PM,32.0,32.0,100,29.66,0.2,NW,4.6,-,0.02,Fog-Snow,Snow,310,2013-03-05 22:00:00
5:53 PM,32.0,32.0,100,29.68,0.5,NW,4.6,-,0.08,Fog-Snow,Snow,320,2013-03-05 22:53:00
6:16 PM,32.0,32.0,100,29.66,0.8,WNW,6.9,-,0.02,Snow,Light Snow,290,2013-03-05 23:16:00
6:24 PM,32.0,32.0,100,29.66,1.0,WNW,6.9,-,0.02,Snow,Light Snow,290,2013-03-05 23:24:00
6:53 PM,32.0,32.0,100,29.70,1.2,WNW,10.4,-,0.04,Snow,Light Snow,290,2013-03-05 23:53:00
7:44 PM,32.0,32.0,100,29.69,1.2,WNW,13.8,-,0.03,Snow,Light Snow,290,2013-03-06 00:44:00
7:53 PM,32.0,30.9,96,29.71,1.2,WNW,15.0,-,0.03,Snow,Light Snow,300,2013-03-06 00:53:00
8:53 PM,30.9,30.0,96,29.73,1.0,NW,13.8,-,0.03,Snow,Light Snow,310,2013-03-06 01:53:00
9:49 PM,30.2,28.4,93,29.72,1.0,NNW,13.8,24.2,0.01,Snow,Light Snow,340,2013-03-06 02:49:00
9:53 PM,30.0,28.9,96,29.75,1.0,NNW,13.8,-,0.02,Snow,Light Snow,340,2013-03-06 02:53:00
10:19 PM,30.2,28.4,93,29.73,1.2,NW,10.4,-,0.01,Snow,Light Snow,310,2013-03-06 03:19:00
10:47 PM,28.4,28.4,100,29.74,1.8,NNW,12.7,-,0.01,Snow,Light Snow,340,2013-03-06 03:47:00
10:53 PM,28.9,28.0,96,29.77,1.8,NNW,8.1,17.3,0.01,Snow,Light Snow,330,2013-03-06 03:53:00
11:07 PM,28.4,28.4,100,29.75,1.2,NNW,12.7,-,0.01,Snow,Light Snow,340,2013-03-06 04:07:00
11:53 PM,28.0,26.1,92,29.78,3.0,NNW,13.8,-,0.01,Snow,Light Snow,330,2013-03-06 04:53:00